Weather History for Wroclaw Ii, Poland

Change the Weather History Date:

Sunday, August 11, 2013

  Actual Average Record
Temperature  
Mean Temperature 64 °F -  
Max Temperature 73 °F 71 °F - ()
Min Temperature 55 °F 51 °F - ()
Degree Days  
Heating Degree Days 1    
Growing Degree Days 14 (Base 50)    
Moisture  
Dew Point 56 °F    
Average Humidity 72    
Maximum Humidity 96    
Minimum Humidity 44    
Precipitation  
Precipitation 0.00 in 0.09 in - ()
Sea Level Pressure  
Sea Level Pressure 30.04 in    
Wind  
Wind Speed 4 mph ()    
Max Wind Speed 12 mph    
Max Gust Speed -    
Visibility 6.0 miles    
Events Fog    
T = Trace of Precipitation, MM = Missing Value Source: Averaged Metar Reports

Daily Weather History Graph

Daily Weather History Graph

Search for Another Location

Airport:

Trip Planner

Search our weather history database for the weather conditions in past years. The results will help you decide how hot, cold, wet, or windy it might be!

Date:

Astronomy

Aug. 11, 2013 Rise Set
Actual Time 5:32 AM CEST 8:21 PM CEST
Civil Twilight 4:54 AM CEST 8:59 PM CEST
Nautical Twilight 4:05 AM CEST 9:47 PM CEST
Astronomical Twilight 3:05 AM CEST 10:47 PM CEST
Moon 10:41 AM CEST (8/11) 9:45 PM CEST (8/11)
Length of Visible Light 16h 04m
Length of Day
14h 48m
Waxing Crescent, 19% of the Moon is Illuminated
Aug 11
Waxing Crescent
Aug 14
First Quarter
Aug 21
Full
Aug 28
Last Quarter
Sep 5
New

Hourly Weather History & Observations

Time (CEST) Temp. Dew Point Humidity Pressure Visibility Wind Dir Wind Speed Gust Speed Precip Events Conditions
12:00 AM 62.6 °F 55.4 °F 77% 30.06 in 6.2 mi West 6.9 mph - N/A   Partly Cloudy
12:30 AM 60.8 °F 59.0 °F 94% 30.06 in 6.2 mi Variable 2.3 mph - N/A   Partly Cloudy
1:00 AM 60.8 °F 57.2 °F 88% 30.04 in - Variable 1.2 mph - N/A   Clear
1:30 AM 59.0 °F 57.2 °F 94% 30.04 in - Variable 2.3 mph - N/A   Clear
2:00 AM 58 °F 56 °F 89% 30.05 in 25 mi WSW 4.5 mph - -   Partly Cloudy
2:00 AM 59.0 °F 57.2 °F 94% 30.04 in - WSW 3.5 mph - N/A   Clear
2:30 AM 59.0 °F 57.2 °F 94% 30.04 in - West 3.5 mph - N/A   Clear
3:00 AM 59.0 °F 57.2 °F 94% 30.04 in - West 3.5 mph - N/A   Clear
3:30 AM 57.2 °F 55.4 °F 94% 30.04 in - Variable 2.3 mph - N/A   Clear
4:00 AM 57.2 °F 55.4 °F 94% 30.04 in - WSW 3.5 mph - N/A   Clear
4:30 AM 59.0 °F 57.2 °F 94% 30.04 in - Variable 2.3 mph - N/A   Clear
5:00 AM 58 °F 57 °F 96% 30.04 in 9 mi WNW 4.5 mph - -   Mostly Cloudy
5:00 AM 57.2 °F 55.4 °F 94% 30.04 in - NW 3.5 mph - N/A   Clear
5:30 AM 57.2 °F 55.4 °F 94% 30.04 in - WNW 3.5 mph - N/A   Clear
6:00 AM 57.2 °F 55.4 °F 94% 30.04 in 4.3 mi South 1.2 mph - N/A Fog Fog
6:30 AM 57.2 °F 55.4 °F 94% 30.04 in 3.7 mi SSW 2.3 mph - N/A Fog Fog
7:00 AM 59.0 °F 57.2 °F 94% 30.04 in 3.7 mi Variable 1.2 mph - N/A Fog Fog
7:30 AM 62.6 °F 59.0 °F 88% 30.04 in - Variable 1.2 mph - N/A   Clear
8:00 AM 61 °F 58 °F 85% 30.04 in 22 mi West 4.5 mph - -   Scattered Clouds
8:00 AM 62.6 °F 57.2 °F 82% 30.04 in - West 3.5 mph - N/A   Clear
8:30 AM 64.4 °F 59.0 °F 83% 30.04 in - WNW 3.5 mph - N/A   Clear
9:00 AM 66.2 °F 57.2 °F 73% 30.04 in - West 4.6 mph - N/A   Clear
9:30 AM 68.0 °F 59.0 °F 73% 30.04 in - West 4.6 mph - N/A   Clear
10:00 AM 69.8 °F 59.0 °F 68% 30.04 in 6.2 mi West 4.6 mph - N/A   Partly Cloudy
10:30 AM 69.8 °F 57.2 °F 64% 30.04 in 6.2 mi WNW 4.6 mph - N/A   Partly Cloudy
11:00 AM 70 °F 56 °F 53% 30.04 in 25 mi WSW 4.5 mph - -   Scattered Clouds
11:00 AM 71.6 °F 57.2 °F 60% 30.04 in 6.2 mi West 4.6 mph - N/A   Partly Cloudy
11:30 AM 73.4 °F 57.2 °F 57% 30.04 in 6.2 mi WNW 4.6 mph - N/A   Partly Cloudy
12:00 PM 71.6 °F 55.4 °F 57% 30.04 in 6.2 mi West 5.8 mph - N/A   Scattered Clouds
12:30 PM 73.4 °F 55.4 °F 53% 30.04 in 6.2 mi West 5.8 mph - N/A   Scattered Clouds
1:00 PM 73.4 °F 57.2 °F 57% 30.04 in 6.2 mi WNW 6.9 mph - N/A   Mostly Cloudy
1:30 PM 73.4 °F 57.2 °F 57% 30.04 in 6.2 mi WNW 9.2 mph - N/A   Scattered Clouds
2:00 PM 72 °F 55 °F 44% 30.02 in 25 mi West 6.7 mph - -   Scattered Clouds
2:00 PM 73.4 °F 55.4 °F 53% 30.04 in 6.2 mi WNW 9.2 mph - N/A   Partly Cloudy
2:30 PM 73.4 °F 57.2 °F 57% 30.04 in 6.2 mi WNW 11.5 mph - N/A   Partly Cloudy
3:00 PM 73.4 °F 55.4 °F 53% 30.01 in 6.2 mi WNW 10.4 mph - N/A   Partly Cloudy
3:30 PM 73.4 °F 55.4 °F 53% 30.01 in 6.2 mi WNW 10.4 mph - N/A   Partly Cloudy
4:00 PM 73.4 °F 59.0 °F 61% 30.01 in 6.2 mi NW 11.5 mph - N/A   Partly Cloudy
4:30 PM 71.6 °F 55.4 °F 57% 30.01 in 6.2 mi WNW 9.2 mph - N/A   Partly Cloudy
5:00 PM 70 °F 55 °F 50% 30.02 in 25 mi WNW 6.7 mph - -   Mostly Cloudy
5:00 PM 71.6 °F 55.4 °F 57% 30.04 in 6.2 mi NW 9.2 mph - N/A   Partly Cloudy
5:30 PM 69.8 °F 55.4 °F 60% 30.04 in 6.2 mi NW 9.2 mph - N/A   Partly Cloudy
6:00 PM 69.8 °F 55.4 °F 60% 30.04 in - NW 8.1 mph - N/A   Clear
6:30 PM 69.8 °F 55.4 °F 60% 30.01 in - NW 9.2 mph - N/A   Clear
7:00 PM 68.0 °F 55.4 °F 64% 30.01 in - NW 9.2 mph - N/A   Clear
7:30 PM 68.0 °F 55.4 °F 64% 30.04 in - NW 6.9 mph - N/A   Clear
8:00 PM 67 °F 53 °F 52% 30.03 in 25 mi WNW 4.5 mph - -   Mostly Cloudy
8:00 PM 68.0 °F 53.6 °F 60% 30.04 in - West 4.6 mph - N/A   Clear
8:30 PM 66.2 °F 53.6 °F 64% 30.04 in - West 5.8 mph - N/A   Clear
9:00 PM 64.4 °F 50.0 °F 59% 30.04 in - West 5.8 mph - N/A   Clear
9:30 PM 62.6 °F 50.0 °F 63% 30.06 in - WSW 4.6 mph - N/A   Clear
10:00 PM 60.8 °F 50.0 °F 68% 30.06 in - WSW 5.8 mph - N/A   Clear
10:30 PM 60.8 °F 51.8 °F 72% 30.06 in - WSW 5.8 mph - N/A   Clear
11:00 PM 59 °F 50 °F 64% 30.06 in 31 mi West 4.5 mph - -   Partly Cloudy
11:00 PM 59.0 °F 51.8 °F 77% 30.06 in - WSW 3.5 mph - N/A   Clear
11:30 PM 57.2 °F 51.8 °F 82% 30.06 in - WSW 3.5 mph - N/A   Clear